Regional Weather Roundup
Issued by NWS

Home | Current Version | Previous Version | Text Only | Print | Product List | Glossary On
Versions: 1 2 3 4 5 6 7 8 9 10 11 12 13 14 15 16 17 18 19 20 21 22 23 24 25 26 27 28 29 30 31 32 33 34 35 36 37 38 39 40 41 42 43 44 45 46 47 48 49 50
665
ASUS43 KBIS 211302
RWRND

NORTH DAKOTA REGIONAL WEATHER ROUNDUP
NATIONAL WEATHER SERVICE BISMARCK ND
800 AM CDT MON AUG 21 2017

NOTE: "FAIR" INDICATES FEW OR NO CLOUDS BELOW 12,000 FEET WITH NO
SIGNIFICANT WEATHER AND/OR OBSTRUCTIONS TO VISIBILITY.


NDZ001>003-009>011-017-211400-
NORTHWEST NORTH DAKOTA

CITY           SKY/WX    TMP DP  RH WIND       PRES   REMARKS
WILLISTON      PTCLDY    59  44  57 N9        29.99R
MINOT          MOSUNNY   59  50  72 SE5       29.95S
MINOT AFB      CLOUDY    57  51  80 S8        29.92F
$$

NDZ018>021-031>035-040>046-211400-
SOUTHWEST NORTH DAKOTA

CITY           SKY/WX    TMP DP  RH WIND       PRES   REMARKS
BISMARCK       CLOUDY    58  55  90 CALM      29.97S
DICKINSON      CLEAR     52  49  89 SW3       29.99R
GARRISON         N/A     58  54  86 CALM      29.96R
HETTINGER ARPT CLEAR     47  45  93 CALM      30.03S
$$

NDZ004>008-012>016-024-026-027-054-211400-
NORTHEAST NORTH DAKOTA

CITY           SKY/WX    TMP DP  RH WIND       PRES   REMARKS
GRAND FORKS    CLOUDY    59  54  83 S8        29.99F
GRND FRKS AFB  CLOUDY    58  53  82 CALM      29.99F
DEVILS LAKE    PTSUNNY   59  55  87 CALM      29.99S
$$

NDZ022-023-025-028>030-036>039-047>053-211400-
SOUTHEAST NORTH DAKOTA

CITY           SKY/WX    TMP DP  RH WIND       PRES   REMARKS
FARGO          LGT RAIN  61  56  83 SE6       30.01S
JAMESTOWN      LGT RAIN  58  53  84 SE6       29.99F
$$





USA.gov is the U.S. government's official web portal to all federal, state and local government web resources and services.